DW8492 Weather Reports


Display with metric or nautical units.
time (UTC)temp
F
wind
direction
speed
MPH
gust
MPH
rain 1hr
in
rain 24hr
in
rain mn
in
humidity
%
barometer
mb
20260505021549 64 247 1.0 6.0 0.00 0.01 0.01 63 1006.3
20260505020013 65 236 1.0 4.0 0.00 0.01 0.01 63 1006.4
20260505014530 65 225 2.0 4.0 0.00 0.01 0.01 62 1006.3
20260505013105 65 155 2.0 7.0 0.00 0.01 0.01 62 1006.1
20260505011529 65 262 1.0 5.0 0.00 0.01 0.01 62 1005.8
20260505010106 65 186 2.0 7.0 0.00 0.01 0.01 62 1005.7
20260505004520 65 224 2.0 8.0 0.00 0.01 0.01 63 1005.5
20260505003050 65 211 1.0 4.0 0.00 0.01 0.01 64 1005.3
20260505001506 65 271 1.0 7.0 0.01 0.01 0.01 65 1005.2
20260505000049 65 275 0.0 5.0 0.01 0.01 0.01 68 1005.1
20260504234506 65 198 0.0 4.0 0.01 0.01 0.01 68 1005.1
20260504233044 66 243 0.0 5.0 0.01 0.01 0.01 66 1005.4
20260504231506 67 268 1.0 7.0 0.00 0.00 0.00 62 1005.6
20260504230038 68 243 1.0 8.0 0.00 0.00 0.00 58 1005.6
20260504224505 69 278 2.0 8.0 0.00 0.00 0.00 58 1005.7
20260504223050 69 340 3.0 8.0 0.00 0.00 0.00 53 1005.7
20260504221521 70 238 3.0 9.0 0.00 0.00 0.00 51 1005.6
20260504214508 72 234 2.0 7.0 0.00 0.00 0.00 50 1005.5
20260504213051 71 219 3.0 7.0 0.00 0.00 0.00 48 1005.5
20260504211512 73 271 3.0 10.0 0.00 0.00 0.00 46 1005.6
20260504204502 72 234 3.0 7.0 0.00 0.00 0.00 49 1005.5
20260504203033 72 248 3.0 9.0 0.00 0.00 0.00 49 1005.7
20260504201608 72 219 3.0 9.0 0.00 0.00 0.00 49 1005.6
20260504194529 71 247 3.0 9.0 0.00 0.00 0.00 47 1006.1
20260504193103 72 224 1.0 8.0 0.00 0.00 0.00 48 1006.2
20260504191538 72 200 3.0 10.0 0.00 0.00 0.00 48 1006.5
20260504190112 72 245 4.0 8.0 0.00 0.00 0.00 48 1006.5
20260504184521 71 223 2.0 7.0 0.00 0.00 0.00 50 1006.8
20260504183050 71 244 2.0 8.0 0.00 0.00 0.00 52 1006.9
20260504181525 70 126 2.0 11.0 0.00 0.00 0.00 50 1007.1
20260504180058 70 247 2.0 9.0 0.00 0.00 0.00 51 1007.3
20260504174524 69 225 3.0 6.0 0.00 0.00 0.00 52 1007.5
20260504173055 69 194 2.0 8.0 0.00 0.00 0.00 51 1007.6
20260504171523 68 167 3.0 9.0 0.00 0.00 0.00 51 1007.8
20260504081547 48 247 0.0 1.0 0.00 0.00 0.00 64 1011.5
20260504044530 39 249 0.0 0.0 0.00 0.00 0.00 83 1013.3
20260504043058 39 249 0.0 0.0 0.00 0.00 0.00 85 1013.4
20260504041524 38 249 0.0 0.0 0.00 0.00 0.00 83 1013.4
20260504040107 39 249 0.0 0.0 0.00 0.00 0.00 81 1013.3
20260504034546 39 249 0.0 0.0 0.00 0.00 0.00 79 1013.3
20260504033129 40 249 0.0 0.0 0.00 0.00 0.00 77 1013.2
20260504031542 41 249 0.0 0.0 0.00 0.00 0.00 76 1013.3
20260504030027 42 249 0.0 0.0 0.00 0.00 0.00 72 1013.3
20260504024545 43 249 0.0 0.0 0.00 0.00 0.00 70 1013.5